Date,TemperatureHighF,TemperatureAvgF,TemperatureLowF,DewpointHighF,DewpointAvgF,DewpointLowF,HumidityHigh,HumidityAvg,HumidityLow,PressureMaxIn,PressureMinIn,WindSpeedMaxMPH,WindSpeedAvgMPH,GustSpeedMaxMPH,PrecipitationSumIn
2014-1-1,37.3,28.4,19.2,27.3,22.4,15.4,88,78,64,30.28,30.03,0,0,0,0.00
2014-1-2,27.5,21.4,10.2,23.2,17.1,3.6,91,83,73,30.10,29.73,2,0,7,0.00
2014-1-3,14.9,6.1,-3.7,4.2,-3.1,-10.0,79,66,47,30.45,30.10,1,0,5,0.00
2014-1-4,32.5,19.7,6.0,14.9,8.1,-1.9,75,61,46,30.31,30.06,2,0,7,0.00
2014-1-5,42.8,35.2,23.8,41.5,27.5,12.3,95,74,59,30.08,29.32,0,0,1,0.00
2014-1-6,34.1,4.2,-10.0,32.3,-2.8,-20.1,93,72,57,30.29,29.42,1,0,8,0.00
2014-1-7,7.7,-1.1,-10.0,-0.7,-10.6,-19.2,68,63,56,30.46,30.29,2,0,7,0.00
2014-1-8,23.0,15.2,5.6,16.5,7.1,-1.5,83,70,61,30.47,30.39,1,0,1,0.00
2014-1-9,33.1,25.3,17.2,28.0,21.1,14.1,94,84,65,30.52,30.28,0,0,0,0.00
2014-1-10,45.2,36.8,29.5,44.4,35.8,28.0,97,96,94,30.28,29.75,0,0,0,0.00
2014-1-11,51.6,44.1,34.4,49.9,40.9,27.3,98,89,72,29.74,29.35,3,0,8,0.00
2014-1-12,36.8,34.1,31.5,30.4,28.6,26.3,86,80,75,29.99,29.69,1,0,3,0.00
2014-1-13,46.7,41.8,35.8,45.6,36.0,28.5,96,80,60,29.88,29.65,0,0,2,0.00
2014-1-14,44.8,38.9,32.5,43.7,32.4,24.7,96,78,49,29.79,29.66,0,0,4,0.00
2014-1-15,33.5,26.6,19.7,26.8,17.3,12.9,87,68,55,30.02,29.78,1,0,3,0.00
2014-1-16,29.1,24.1,17.5,25.9,17.0,12.0,88,75,51,29.98,29.75,2,0,9,0.00
2014-1-17,33.4,26.0,11.9,31.0,21.4,1.4,93,83,62,29.99,29.70,1,0,8,0.00
2014-1-18,20.0,14.8,6.7,15.8,8.5,-0.4,88,76,60,30.02,29.79,1,0,7,0.00
2014-1-19,31.9,25.5,18.9,22.4,18.9,16.1,91,77,64,29.88,29.68,4,0,8,0.00
2014-1-20,36.5,31.8,24.7,28.5,24.6,21.9,90,75,66,29.88,29.62,3,0,9,0.00
2014-1-21,26.4,15.2,-1.2,23.3,7.5,-7.7,90,72,52,30.13,29.78,2,0,8,0.00
2014-1-22,10.0,3.7,-5.0,5.1,-4.3,-10.6,80,70,49,30.14,30.02,1,0,4,0.00
2014-1-23,12.4,6.5,1.5,7.9,-1.4,-5.7,83,70,54,30.54,30.01,1,0,5,0.00
2014-1-24,19.2,6.1,-3.9,2.1,-4.5,-9.6,77,63,46,30.55,29.83,4,1,9,0.00
2014-1-25,26.9,19.1,10.2,24.1,14.1,1.3,92,82,43,29.82,29.39,4,1,11,0.00
2014-1-26,36.9,16.9,1.3,26.7,9.2,-5.7,83,72,59,29.86,29.52,1,0,6,0.00
2014-1-27,41.1,12.0,-6.8,29.8,0.1,-15.8,80,58,45,30.36,29.50,3,0,7,0.00
2014-1-28,4.7,-6.7,-17.8,-12.3,-17.3,-25.2,73,60,39,30.48,30.34,0,0,0,0.00
2014-1-29,17.8,4.5,-10.7,-0.3,-7.3,-17.8,72,58,42,30.34,30.29,1,0,5,0.00
2014-1-30,31.2,16.0,0.3,8.8,0.4,-7.5,70,52,35,30.31,29.94,0,0,0,0.00
2014-1-31,34.1,31.2,27.9,27.6,18.2,7.7,84,60,36,30.12,29.97,2,0,6,0.00
2014-2-1,47.6,38.1,29.8,37.1,28.5,23.2,83,69,48,30.08,29.81,0,0,0,0.00
2014-2-2,42.6,32.2,25.6,39.8,29.6,21.9,95,90,83,30.16,29.87,0,0,1,0.00
2014-2-3,31.5,24.1,14.8,21.8,16.6,10.8,86,74,49,30.34,30.07,1,0,3,0.03
2014-2-4,29.4,22.2,14.0,22.7,15.3,10.1,92,76,55,30.39,29.95,1,0,2,0.00
2014-2-5,28.7,25.0,19.9,27.2,22.1,14.8,94,88,80,30.29,29.61,1,0,4,0.00
2014-2-6,22.2,16.9,6.9,15.1,10.9,2.8,88,77,66,30.40,30.28,1,0,2,0.04
2014-2-7,15.1,4.2,-6.8,2.7,-6.1,-12.9,78,63,43,30.44,30.35,0,0,0,0.00
2014-2-8,20.6,11.3,-0.8,14.0,3.4,-6.9,80,70,51,30.37,30.16,0,0,0,0.00
2014-2-9,27.6,20.9,13.6,24.2,16.1,7.4,92,81,71,30.18,29.99,0,0,2,0.00
2014-2-10,20.6,10.0,-0.6,9.5,3.1,-5.7,85,74,57,30.38,30.17,0,0,3,0.00
2014-2-11,19.1,4.0,-6.5,5.2,-3.9,-12.4,81,70,51,30.48,30.36,0,0,0,0.01
2014-2-12,31.8,10.0,-8.4,8.9,-1.7,-14.2,84,62,34,30.44,30.04,0,0,1,0.03
2014-2-13,37.6,23.8,12.8,15.6,9.6,4.4,72,56,34,30.03,29.57,0,0,0,0.11
2014-2-14,31.5,26.6,21.4,22.5,18.2,10.8,90,71,51,29.70,29.50,2,0,8,0.02
2014-2-15,25.1,18.7,10.0,18.3,10.9,4.8,88,72,50,30.08,29.69,1,0,7,0.10
2014-2-16,26.6,18.9,8.6,20.5,13.4,4.2,86,79,68,30.30,29.95,0,0,4,0.00
2014-2-17,35.9,20.1,1.8,33.3,12.7,-2.9,90,74,44,30.34,29.69,3,0,8,0.03
2014-2-18,43.6,37.7,33.5,30.0,26.9,21.6,87,66,49,30.06,29.77,4,0,11,0.33
2014-2-19,46.0,40.0,27.9,39.0,31.4,24.1,91,72,52,30.06,29.62,1,0,3,0.04
2014-2-20,55.4,40.3,25.1,51.9,36.0,22.5,95,85,69,30.05,29.53,1,0,4,0.37
2014-2-21,53.6,40.8,35.2,52.4,28.7,16.3,96,64,36,29.91,29.46,5,1,12,0.10
2014-2-22,53.1,41.7,34.3,30.4,23.7,16.3,78,50,33,30.01,29.86,2,0,7,0.00
2014-2-23,38.8,33.4,24.5,32.5,25.5,13.7,91,73,47,30.07,29.95,0,0,3,0.00
2014-2-24,31.8,25.3,19.9,14.1,10.3,3.8,72,54,31,30.17,30.06,1,0,4,0.00
2014-2-25,26.3,23.4,20.0,17.9,14.1,9.9,83,68,58,30.14,29.99,0,0,1,0.01
2014-2-26,22.4,17.3,11.9,13.4,4.5,-0.2,77,57,40,30.12,29.78,1,0,3,0.00
2014-2-27,20.2,15.1,6.1,13.0,3.1,-3.5,84,59,45,30.17,29.67,2,0,11,0.00
2014-2-28,29.4,15.7,0.9,8.3,-0.4,-5.5,77,51,27,30.30,30.12,1,0,4,0.00
2014-3-1,46.8,34.4,20.3,31.1,19.6,3.2,71,55,42,30.14,30.06,1,0,5,0.00
2014-3-2,34.7,23.1,13.5,25.2,15.8,2.9,88,74,62,30.19,30.06,0,0,5,0.00
2014-3-3,20.3,12.4,3.2,3.2,-1.3,-5.2,73,55,36,30.40,30.19,1,0,4,0.07
2014-3-4,32.1,17.0,3.0,9.6,2.2,-3.5,74,55,31,30.37,30.17,0,0,0,0.07
2014-3-5,31.3,21.6,12.4,16.5,11.1,7.6,84,65,41,30.37,30.18,0,0,5,0.02
2014-3-6,43.1,28.2,16.9,23.8,14.8,6.8,69,58,40,30.36,30.10,1,0,3,0.00
2014-3-7,54.8,37.6,24.7,35.5,26.2,17.3,84,64,43,30.09,29.90,0,0,0,0.00
2014-3-8,52.2,38.7,29.8,38.4,31.5,25.6,91,76,50,30.07,29.89,1,0,3,0.01
2014-3-9,42.2,33.7,23.9,27.1,22.7,18.8,84,65,42,30.21,29.94,1,0,7,0.00
2014-3-10,58.6,44.7,35.0,38.8,31.8,24.3,71,61,46,29.94,29.63,3,0,12,0.00
2014-3-11,65.0,52.8,42.9,46.1,40.2,34.4,79,63,46,29.66,29.54,1,0,3,0.00
2014-3-12,49.4,34.8,17.0,41.7,29.9,8.6,95,82,64,29.87,29.16,3,0,9,0.74
2014-3-13,30.6,20.8,9.9,17.5,7.4,-1.1,71,56,35,30.16,29.88,1,0,6,0.00
2014-3-14,60.1,44.7,29.7,41.2,24.5,14.6,71,46,30,30.07,29.68,7,2,13,0.01
2014-3-15,51.9,43.3,35.2,41.8,29.8,23.7,85,60,36,30.08,29.76,1,0,4,0.02
2014-3-16,35.0,27.1,23.5,26.2,13.4,2.8,75,57,34,30.18,30.00,2,0,8,0.00
2014-3-17,38.3,28.7,19.1,24.8,15.2,8.0,68,57,48,30.00,29.83,0,0,2,0.00
2014-3-18,56.2,41.1,26.6,37.2,28.9,20.5,80,63,46,29.97,29.83,1,0,5,0.00
2014-3-19,50.7,45.1,40.2,47.0,40.2,34.2,95,83,69,29.87,29.67,3,0,10,0.46
2014-3-20,44.2,37.7,33.1,33.8,29.0,24.4,88,71,53,30.00,29.87,1,0,7,0.00
2014-3-21,62.7,45.0,30.4,37.1,30.4,26.1,91,62,28,30.02,29.74,1,0,6,0.00
2014-3-22,57.8,44.8,35.3,37.0,30.3,25.0,75,59,29,30.09,29.67,2,0,11,0.00
2014-3-23,35.2,30.1,21.3,26.6,16.0,6.8,76,57,33,30.29,30.08,1,0,8,0.00
2014-3-24,36.6,24.9,15.2,15.9,10.4,4.2,82,57,27,30.30,30.09,0,0,0,0.00
2014-3-25,37.2,26.8,20.8,25.1,15.8,9.1,89,64,40,30.09,29.88,1,0,5,0.02
2014-3-26,34.4,23.3,12.9,15.0,9.1,5.6,74,56,34,30.34,30.09,1,0,4,0.01
2014-3-27,57.0,37.7,23.8,26.1,17.6,11.8,68,46,25,30.26,29.78,3,0,6,0.01
2014-3-28,58.7,51.6,40.3,49.0,39.7,20.9,84,66,25,30.04,29.72,4,1,11,0.07
2014-3-29,40.2,35.3,31.5,35.1,32.4,30.0,94,89,76,30.05,29.78,1,0,7,1.00
2014-3-30,47.4,35.8,27.8,30.8,26.5,-99.9,94,72,46,30.11,29.94,1,-5,4,0.26
2014-3-31,61.2,44.0,27.6,34.7,28.2,24.2,93,60,25,30.20,30.00,0,0,0,0.00
2014-4-1,73.3,58.7,44.9,42.6,28.8,17.2,70,35,14,29.98,29.79,4,1,14,0.02
2014-4-2,56.6,48.3,42.1,45.6,41.1,30.1,94,78,37,30.08,29.96,0,0,0,0.28
2014-4-3,51.0,45.7,42.1,50.2,42.0,34.3,97,87,67,30.01,29.68,0,0,0,0.88
2014-4-4,65.6,53.5,39.5,60.6,49.2,27.9,98,86,64,29.81,29.45,6,1,14,0.36
2014-4-5,47.0,38.8,31.9,30.5,27.4,24.6,83,64,47,30.15,29.82,1,0,4,0.00
2014-4-6,58.4,42.0,26.0,34.1,25.4,20.4,95,59,24,30.17,29.92,1,0,2,0.00
2014-4-7,54.7,48.8,44.6,53.6,39.6,21.9,97,73,39,29.91,29.29,3,0,13,0.61
2014-4-8,60.7,50.4,41.1,47.4,39.0,30.3,93,68,33,29.71,29.31,6,0,9,0.04
2014-4-9,57.8,48.5,40.5,41.0,33.9,27.0,85,60,31,29.98,29.71,1,0,7,0.00
2014-4-10,70.9,56.0,39.6,39.7,34.3,30.4,72,47,25,29.99,29.74,6,1,12,0.00
2014-4-11,65.8,56.8,45.2,53.5,48.4,39.5,95,75,38,30.01,29.84,2,0,3,0.17
2014-4-12,74.6,57.2,37.8,50.0,43.1,35.1,96,64,29,30.11,29.82,3,0,7,0.00
2014-4-13,77.0,68.1,57.8,55.0,49.7,46.1,66,53,34,29.87,29.67,5,1,13,0.00
2014-4-14,70.8,63.0,47.0,59.0,53.3,44.5,93,73,45,29.67,29.56,4,1,12,0.51
2014-4-15,46.5,32.6,26.6,44.0,27.0,17.2,94,80,59,30.20,29.58,1,0,5,0.27
2014-4-16,46.7,34.1,20.6,24.8,19.5,15.9,86,57,34,30.42,30.20,1,0,3,0.02
2014-4-17,65.6,48.9,34.1,37.4,27.5,18.9,63,45,25,30.34,30.21,1,0,5,0.00
2014-4-18,67.6,53.9,41.1,40.8,34.8,28.9,78,51,27,30.23,30.13,1,0,4,0.00
2014-4-19,63.9,51.8,43.5,39.9,34.9,22.4,82,57,25,30.28,30.16,1,0,4,0.00
2014-4-20,74.4,55.9,36.8,44.0,33.4,26.5,77,47,18,30.24,30.04,0,0,4,0.00
2014-4-21,76.8,60.8,41.8,46.9,38.4,30.6,75,47,25,30.04,29.74,2,0,9,0.00
2014-4-22,68.3,59.6,46.8,56.1,45.6,30.3,92,63,29,29.80,29.63,1,0,7,0.05
2014-4-23,55.0,45.0,36.0,39.6,31.5,28.1,75,60,40,30.07,29.80,1,0,5,0.00
2014-4-24,61.0,48.8,36.8,31.7,23.6,10.9,76,41,21,30.12,29.80,1,0,2,0.00
2014-4-25,55.3,51.0,44.6,53.9,39.9,22.2,95,70,32,29.83,29.57,1,0,3,0.37
2014-4-26,70.9,55.5,41.1,50.3,41.7,33.6,90,63,35,29.94,29.78,1,0,5,0.05
2014-4-27,66.3,51.5,37.3,40.8,34.6,31.6,86,56,29,30.04,29.89,1,0,2,0.00
2014-4-28,54.8,50.9,46.1,53.9,42.4,31.3,97,76,43,29.88,29.66,0,0,3,0.58
2014-4-29,75.8,63.3,54.1,61.1,55.9,42.9,97,81,32,29.85,29.51,2,0,7,1.04
2014-4-30,59.6,55.4,52.0,57.9,53.9,50.9,97,95,91,29.82,29.66,0,0,4,0.74
2014-5-1,56.6,51.6,45.7,53.7,40.6,34.6,94,68,44,29.81,29.75,2,0,7,0.01
2014-5-2,55.1,49.8,44.8,42.9,39.5,34.5,80,68,56,29.82,29.77,1,0,6,0.00
2014-5-3,66.1,54.6,43.8,45.2,39.4,30.9,87,60,28,29.81,29.69,3,0,7,0.00
2014-5-4,65.8,57.0,46.7,41.1,35.1,26.4,60,45,28,29.98,29.78,2,0,10,0.00
2014-5-5,56.5,47.4,41.1,42.4,35.8,32.6,88,65,45,30.00,29.84,0,0,2,0.07
2014-5-6,71.6,55.5,40.3,41.1,36.6,29.6,87,54,26,29.96,29.86,0,0,2,0.00
2014-5-7,82.8,66.2,50.8,57.0,46.3,38.5,71,50,29,29.96,29.84,2,0,5,0.00
2014-5-8,83.8,72.7,61.8,63.2,55.8,51.9,75,57,35,29.99,29.87,3,0,8,0.00
2014-5-9,77.7,68.8,62.7,62.7,56.7,51.1,89,66,49,29.92,29.76,4,0,14,0.04
2014-5-10,64.7,61.2,56.6,61.2,58.4,54.4,96,91,75,29.95,29.81,1,0,2,0.77
2014-5-11,77.4,63.5,53.5,64.9,59.1,52.4,97,87,58,30.06,29.93,0,0,1,0.90
2014-5-12,82.6,70.5,62.0,70.0,64.8,60.8,97,84,57,30.01,29.91,1,0,4,0.64
2014-5-13,85.1,74.9,65.2,68.0,63.0,55.8,92,69,42,29.97,29.89,3,0,9,0.00
2014-5-14,78.1,67.8,61.2,69.5,63.8,58.6,96,87,67,29.99,29.80,0,0,0,0.55
2014-5-15,64.3,57.4,45.8,63.1,54.1,39.7,97,89,72,29.95,29.67,2,0,8,0.55
2014-5-16,55.9,46.7,38.0,43.6,38.1,34.0,93,74,47,29.98,29.89,1,0,3,0.10
2014-5-17,54.8,46.7,41.2,43.4,40.6,36.7,96,81,52,30.17,29.96,1,0,3,0.01
2014-5-18,64.3,49.3,34.6,42.7,34.7,26.7,96,64,27,30.25,30.17,0,0,0,0.00
2014-5-19,68.6,54.0,38.0,45.2,38.4,30.2,96,61,27,30.27,30.09,0,0,0,0.00
2014-5-20,74.6,62.6,53.3,62.1,50.5,39.5,90,65,44,30.12,29.88,1,0,3,0.00
2014-5-21,76.7,66.9,61.5,65.9,61.7,58.5,95,84,68,29.90,29.77,1,0,5,0.07
2014-5-22,75.1,65.7,56.0,64.1,56.9,49.6,96,76,45,29.94,29.78,1,0,8,1.06
2014-5-23,68.6,58.7,50.5,51.8,47.0,43.6,88,67,43,30.06,29.92,1,0,6,0.00
2014-5-24,75.3,59.8,45.2,52.4,47.9,43.3,96,69,35,30.16,30.04,0,0,0,0.00
2014-5-25,79.9,64.2,49.8,54.9,49.2,40.8,95,64,27,30.12,30.01,0,0,0,0.00
2014-5-26,83.0,68.1,51.6,63.0,54.8,44.4,95,67,29,30.07,29.90,1,0,4,0.00
2014-5-27,85.7,74.1,67.3,67.9,64.4,60.2,93,73,45,29.92,29.79,1,0,4,0.11
2014-5-28,84.1,70.6,64.2,67.8,63.9,58.6,94,81,47,29.93,29.81,1,0,4,0.01
2014-5-29,79.2,68.6,61.2,66.4,61.5,49.9,96,80,57,30.02,29.90,0,0,0,0.00
2014-5-30,79.6,64.9,52.6,60.5,53.4,49.1,91,69,39,30.09,30.01,0,0,0,0.00
2014-5-31,81.2,66.9,52.5,57.2,52.8,46.9,96,65,31,30.15,30.04,0,0,2,0.00
2014-6-1,83.2,68.7,52.3,65.8,57.7,50.3,95,70,43,30.10,29.96,1,0,1,0.00
2014-6-2,78.5,72.6,68.1,68.3,65.3,63.5,94,78,62,30.03,29.88,2,0,7,0.46
2014-6-3,84.5,73.9,65.2,68.9,64.1,55.4,94,74,43,29.89,29.77,1,0,6,0.15
2014-6-4,70.4,63.7,55.7,65.8,59.5,52.8,95,87,68,29.84,29.59,0,0,0,0.72
2014-6-5,72.1,61.9,53.3,57.3,51.9,47.4,96,72,46,29.88,29.67,1,0,6,0.00
2014-6-6,77.9,62.5,47.0,54.3,48.9,41.6,96,66,32,29.95,29.87,0,0,2,0.00
2014-6-7,79.2,65.3,51.3,56.6,51.4,43.7,95,66,29,30.00,29.81,0,0,0,0.01
2014-6-8,75.4,62.6,55.6,69.2,58.1,51.5,95,85,71,29.87,29.66,0,0,5,0.21
2014-6-9,73.2,63.5,53.2,61.6,57.2,52.1,97,81,58,29.91,29.83,0,0,0,0.00
2014-6-10,70.9,64.0,56.7,63.6,60.3,55.3,96,88,73,29.86,29.77,0,0,0,0.30
2014-6-11,78.6,69.0,62.3,69.2,64.2,61.1,96,85,63,29.78,29.66,1,0,4,0.01
2014-6-12,74.6,68.8,62.1,64.8,62.6,59.4,95,82,62,29.76,29.68,1,0,4,0.00
2014-6-13,72.8,65.9,57.5,64.4,57.1,47.6,95,75,47,29.91,29.70,1,0,7,0.00
2014-6-14,75.3,61.1,46.5,53.2,47.4,40.5,94,64,31,30.07,29.91,0,0,1,0.00
2014-6-15,82.4,66.0,48.6,61.2,53.8,46.7,95,69,35,30.08,29.95,0,0,4,0.00
2014-6-16,82.6,73.5,64.5,72.7,66.1,60.4,94,78,57,30.03,29.96,1,0,2,0.20
2014-6-17,87.4,77.7,66.1,70.1,66.3,62.9,95,70,46,30.01,29.85,3,0,9,0.00
2014-6-18,88.8,78.1,66.4,70.6,67.3,61.9,93,71,44,29.98,29.86,2,0,5,0.09
2014-6-19,81.4,71.9,65.6,70.8,66.9,63.7,96,85,62,29.99,29.86,1,0,1,1.53
2014-6-20,79.9,70.8,65.5,71.9,67.9,63.7,96,91,71,29.98,29.81,0,0,0,0.85
2014-6-21,75.4,70.0,63.2,68.9,65.6,60.8,97,86,69,29.85,29.76,1,0,6,0.01
2014-6-22,82.0,69.2,59.2,65.9,61.1,56.9,96,78,49,29.89,29.81,0,0,0,0.00
2014-6-23,86.1,74.5,64.3,75.0,67.1,62.1,96,79,53,29.89,29.80,1,0,3,0.84
2014-6-24,82.8,71.6,67.1,71.9,68.5,65.8,97,91,64,29.90,29.78,0,0,4,0.82
2014-6-25,79.6,71.6,67.6,72.1,68.4,65.8,97,90,68,29.88,29.77,0,0,2,0.21
2014-6-26,82.8,72.2,63.7,67.6,64.5,60.0,97,79,47,29.96,29.88,0,0,0,0.01
2014-6-27,84.7,72.7,61.8,69.3,64.0,58.6,96,76,43,30.02,29.95,0,0,0,0.00
2014-6-28,84.1,71.5,63.2,74.8,67.2,61.7,96,87,64,30.06,30.00,2,0,2,0.22
2014-6-29,83.8,75.1,68.4,73.4,69.4,66.6,96,84,59,30.03,29.91,1,0,5,0.02
2014-6-30,83.6,75.6,68.8,73.5,69.5,66.8,95,82,61,29.93,29.76,1,0,4,0.00
2014-7-1,87.8,77.8,66.4,74.9,70.1,63.4,95,78,58,29.80,29.64,1,0,5,0.93
2014-7-2,82.0,72.3,66.4,68.4,65.6,61.7,97,82,51,29.85,29.69,1,0,4,0.52
2014-7-3,73.7,66.3,58.3,66.7,60.0,52.9,96,81,53,30.04,29.83,1,0,4,0.04
2014-7-4,75.3,63.2,52.5,58.2,52.2,45.3,94,71,38,30.22,30.04,1,0,5,0.00
2014-7-5,75.6,63.1,49.6,58.3,51.1,44.9,96,69,35,30.25,30.07,0,0,2,0.00
2014-7-6,77.0,65.8,55.0,65.1,58.6,52.4,95,79,57,30.07,29.83,1,0,1,0.01
2014-7-7,80.7,72.2,68.4,70.2,64.4,59.3,96,77,61,29.83,29.69,4,0,8,0.68
2014-7-8,81.8,73.0,66.8,69.4,65.7,59.9,96,80,52,29.74,29.60,4,0,8,0.01
2014-7-9,82.0,71.6,63.7,63.5,60.2,51.7,90,70,37,29.90,29.75,1,0,4,0.00
2014-7-10,80.9,68.6,58.4,63.8,59.5,56.8,96,75,45,30.07,29.91,0,0,1,0.00
2014-7-11,82.8,69.5,57.5,62.5,58.0,53.1,95,71,38,30.13,30.06,0,0,0,0.00
2014-7-12,84.7,72.3,61.3,67.4,62.3,58.5,94,73,44,30.10,29.94,1,0,1,0.00
2014-7-13,85.5,75.9,69.9,74.5,68.5,64.8,94,78,59,29.94,29.77,1,0,4,0.24
2014-7-14,80.3,72.1,66.9,71.3,68.1,63.9,96,88,62,29.82,29.69,1,0,8,0.39
2014-7-15,74.6,67.0,57.8,65.3,57.3,49.8,95,74,44,29.83,29.68,1,0,7,0.05
2014-7-16,70.3,60.4,52.2,56.4,52.1,49.9,94,75,51,29.95,29.82,1,0,3,0.00
2014-7-17,73.7,61.6,49.6,57.3,52.8,48.2,97,76,41,30.08,29.95,0,0,0,0.00
2014-7-18,73.7,63.5,52.5,62.3,56.7,50.8,96,80,54,30.14,30.06,0,0,0,0.04
2014-7-19,69.6,65.2,62.0,65.7,63.1,60.8,96,93,82,30.06,29.96,0,0,0,0.19
2014-7-20,78.3,69.7,65.2,69.4,65.6,64.0,96,88,68,30.00,29.94,0,0,0,0.00
2014-7-21,84.9,72.7,63.2,72.0,66.5,61.7,96,83,49,30.05,29.97,0,0,0,0.00
2014-7-22,87.6,75.7,64.3,72.3,67.7,62.8,96,79,50,30.04,29.91,0,0,0,0.00
2014-7-23,79.8,71.9,62.4,70.3,66.5,57.8,95,83,63,29.93,29.81,1,0,4,0.00
2014-7-24,75.8,64.8,56.2,59.6,55.7,52.2,94,74,51,29.99,29.90,0,0,2,0.00
2014-7-25,76.5,63.9,50.2,61.9,54.5,48.5,95,74,45,30.05,29.90,0,0,2,0.00
2014-7-26,81.4,69.9,62.1,68.3,63.1,59.3,92,80,49,29.93,29.73,1,0,2,0.08
2014-7-27,76.7,70.5,64.8,70.6,67.2,62.4,96,89,77,29.76,29.57,1,0,3,0.75
2014-7-28,72.0,64.8,58.9,62.9,58.8,54.0,95,82,56,29.87,29.61,1,0,7,0.01
2014-7-29,70.1,61.0,53.8,56.7,52.5,47.1,93,75,47,29.97,29.87,0,0,2,0.01
2014-7-30,73.9,63.6,56.3,61.1,57.1,52.8,89,80,58,29.97,29.92,1,0,2,0.01
2014-7-31,79.8,68.4,59.8,64.0,59.9,56.6,93,77,47,30.01,29.95,1,0,2,0.00
2014-8-1,81.8,69.8,58.6,66.4,61.7,57.2,96,78,44,30.04,29.96,0,0,1,0.00
2014-8-2,70.9,65.0,60.9,66.2,62.8,59.3,96,92,79,30.05,29.97,0,0,0,0.65
2014-8-3,79.4,67.4,58.9,67.1,62.1,57.8,97,84,60,30.06,29.99,0,0,0,0.00
2014-8-4,83.8,69.5,58.0,66.6,60.1,52.4,97,76,36,30.06,29.97,0,0,0,0.00
2014-8-5,82.6,69.0,58.0,67.5,62.3,56.3,96,81,43,29.99,29.91,0,0,1,0.01
2014-8-6,80.1,69.2,60.7,69.7,64.6,55.5,96,86,61,29.95,29.87,0,0,0,0.16
2014-8-7,79.0,65.7,54.8,61.6,56.0,49.3,96,74,36,30.03,29.95,0,0,0,0.00
2014-8-8,80.1,67.2,55.6,61.8,57.3,53.5,96,74,42,30.04,29.95,0,0,0,0.00
2014-8-9,81.6,69.1,57.2,68.9,61.5,54.4,92,78,59,29.99,29.92,0,0,0,0.00
2014-8-10,83.4,72.1,60.4,69.3,64.5,58.5,96,79,55,29.98,29.87,0,0,0,0.00
2014-8-11,77.4,71.1,67.1,74.9,68.8,65.2,96,92,85,29.87,29.67,0,0,0,1.79
2014-8-12,78.1,69.9,63.5,69.7,64.7,58.1,97,85,54,29.78,29.65,3,0,7,0.08
2014-8-13,75.4,65.1,58.1,59.3,56.6,51.9,92,76,48,29.91,29.78,1,0,5,0.00
2014-8-14,73.0,64.1,53.2,57.8,54.1,49.8,90,72,48,29.95,29.87,1,0,4,0.00
2014-8-15,73.9,59.4,47.0,56.1,48.7,42.2,97,72,32,29.99,29.93,0,0,1,0.00
2014-8-16,77.4,61.4,46.7,64.4,54.0,45.3,96,80,40,29.96,29.88,1,0,5,0.00
2014-8-17,79.2,71.4,64.3,68.4,65.2,62.5,95,82,58,29.91,29.84,0,0,0,0.00
2014-8-18,82.8,71.9,65.6,69.6,66.4,63.8,95,84,60,29.85,29.70,0,0,0,0.00
2014-8-19,84.9,72.6,61.5,72.0,66.3,60.2,96,82,56,29.77,29.70,0,0,1,0.00
2014-8-20,84.7,73.6,66.9,72.2,67.7,64.4,95,83,55,29.90,29.71,1,0,3,0.06
2014-8-21,72.3,69.5,67.1,69.7,67.1,65.0,95,92,85,29.99,29.89,0,0,1,0.23
2014-8-22,80.9,73.1,66.4,73.4,69.6,65.2,97,89,72,29.93,29.83,0,0,3,0.93
2014-8-23,83.8,73.7,67.4,72.5,68.8,66.2,97,86,61,29.93,29.85,0,0,0,0.00
2014-8-24,82.6,72.2,64.8,70.6,66.6,63.5,96,84,59,29.98,29.90,0,0,0,0.00
2014-8-25,83.0,72.5,64.8,71.9,66.8,63.6,96,83,56,30.03,29.96,0,0,0,0.00
2014-8-26,84.9,73.3,63.2,71.7,66.4,61.7,96,80,57,30.07,29.96,0,0,1,0.00
2014-8-27,86.5,75.2,65.8,73.3,68.3,63.3,96,80,59,29.99,29.90,0,0,3,0.00
2014-8-28,76.5,66.4,58.9,63.2,59.2,56.6,96,79,54,30.04,29.96,0,0,0,0.00
2014-8-29,81.2,66.5,54.4,64.3,58.3,52.1,94,77,50,30.06,29.96,0,0,1,0.00
2014-8-30,87.4,75.4,64.8,69.5,64.7,61.5,92,72,45,29.99,29.88,1,0,2,0.00
2014-8-31,76.7,71.3,68.9,71.9,69.0,66.7,97,93,80,29.94,29.88,0,0,4,1.35
2014-9-1,81.4,74.1,68.4,73.7,69.6,66.9,96,87,70,29.91,29.79,1,0,6,0.01
2014-9-2,78.1,72.3,65.6,71.3,68.0,64.1,96,87,68,29.89,29.77,1,0,6,0.21
2014-9-3,81.8,69.4,61.0,69.1,63.5,58.8,97,83,47,30.00,29.88,0,0,0,0.00
2014-9-4,85.7,71.5,59.8,69.6,64.2,58.7,97,80,48,30.05,29.95,0,0,1,0.00
2014-9-5,87.8,76.7,67.9,73.3,69.1,66.1,96,79,51,30.04,29.87,1,0,1,0.00
2014-9-6,75.1,68.4,58.3,69.4,64.1,56.3,93,86,72,30.04,29.87,1,0,1,0.01
2014-9-7,74.6,62.0,52.2,58.1,54.4,51.1,97,79,50,30.15,30.04,0,0,1,0.00
2014-9-8,75.3,61.9,51.7,63.6,57.1,50.6,96,85,63,30.09,29.98,0,0,0,0.00
2014-9-9,80.3,68.6,62.0,65.6,61.8,57.0,94,81,46,30.02,29.91,0,0,3,0.00
2014-9-10,80.3,71.6,61.2,71.9,66.0,59.5,96,84,68,29.91,29.67,2,0,8,0.00
2014-9-11,76.0,65.1,55.3,69.5,59.9,51.5,95,83,68,30.06,29.64,1,0,7,0.14
2014-9-12,61.2,57.8,54.8,53.8,52.5,51.0,91,83,71,30.15,30.05,0,0,0,0.00
2014-9-13,64.5,56.5,48.3,53.4,49.1,43.7,93,78,48,30.25,30.01,0,0,3,0.00
2014-9-14,66.1,52.5,42.2,49.7,45.2,40.6,96,79,47,30.28,30.15,0,0,0,0.00
2014-9-15,69.6,56.0,42.6,54.7,48.5,41.3,97,78,48,30.17,29.95,0,0,1,0.00
2014-9-16,64.3,56.0,48.5,54.6,51.0,46.6,94,84,62,30.09,30.00,0,0,0,0.01
2014-9-17,68.4,55.2,44.9,53.0,48.3,43.6,96,80,47,30.02,29.90,0,0,2,0.00
2014-9-18,70.3,57.0,47.0,52.1,48.4,45.4,96,76,44,30.09,29.93,0,0,1,0.00
2014-9-19,72.7,57.8,44.9,54.4,49.4,43.6,97,77,41,30.15,30.02,0,0,0,0.00
2014-9-20,80.1,66.9,53.5,64.6,59.6,51.0,96,79,50,30.02,29.82,1,0,8,0.00
2014-9-21,77.9,68.5,53.6,65.4,56.3,39.0,91,68,25,29.87,29.64,2,0,7,0.00
2014-9-22,62.4,52.2,43.3,50.9,44.0,39.2,93,76,44,30.21,29.88,0,0,0,0.00
2014-9-23,70.1,51.9,38.3,47.6,42.5,37.0,97,75,34,30.32,30.22,0,0,0,0.00
2014-9-24,74.7,56.4,43.1,51.3,46.3,41.6,96,73,36,30.34,30.25,0,0,0,0.00
2014-9-25,77.6,58.6,44.5,57.4,49.4,42.7,97,76,35,30.27,30.15,0,0,0,0.00
2014-9-26,78.3,60.9,47.6,60.9,54.1,46.2,97,81,48,30.21,30.12,0,0,0,0.00
2014-9-27,79.0,61.5,48.9,57.8,53.2,47.8,97,78,40,30.19,30.08,0,0,0,0.00
2014-9-28,79.8,62.3,49.4,60.7,54.2,48.0,97,78,44,30.10,29.97,0,0,1,0.00
2014-9-29,81.4,63.6,52.5,60.9,53.4,43.8,97,74,28,29.97,29.82,0,0,0,0.00
2014-9-30,62.9,55.0,49.1,61.1,52.8,47.4,96,93,87,29.91,29.80,0,0,0,0.23
2014-10-1,66.3,54.7,46.1,56.4,51.3,45.0,97,89,64,29.98,29.91,0,0,0,0.01
2014-10-2,82.4,61.8,45.1,62.1,52.0,43.8,97,74,38,30.02,29.83,1,0,3,0.00
2014-10-3,70.1,62.9,53.2,63.4,56.8,51.2,96,81,65,29.83,29.53,4,1,8,0.40
2014-10-4,53.3,43.6,36.3,51.3,36.4,28.1,93,77,51,29.79,29.62,4,1,8,0.16
2014-10-5,55.1,47.4,40.2,42.2,34.5,27.5,87,63,36,29.82,29.73,4,1,8,0.01
2014-10-6,56.6,51.0,43.3,54.2,48.1,40.8,96,90,78,29.75,29.65,3,0,6,0.40
2014-10-7,56.9,51.9,45.7,55.1,50.1,44.4,96,94,84,29.81,29.66,3,0,7,0.48
2014-10-8,65.2,54.0,43.3,51.1,44.6,38.3,96,74,38,30.00,29.78,3,0,9,0.01
2014-10-9,54.4,49.3,40.2,51.0,45.2,37.5,93,86,67,30.07,29.98,1,0,7,0.02
2014-10-10,59.9,53.0,49.1,51.0,48.3,43.4,97,85,56,30.03,29.97,0,0,0,0.13
2014-10-11,58.7,49.5,42.6,47.2,41.5,38.0,94,76,48,30.14,29.97,2,0,5,0.00
2014-10-12,62.0,49.7,37.0,53.2,43.7,34.6,92,81,54,30.14,29.98,1,0,3,0.00
2014-10-13,73.7,63.5,54.5,63.1,58.6,52.1,95,85,65,29.99,29.82,4,0,7,0.00
2014-10-14,74.9,65.3,57.0,63.3,58.7,55.9,96,81,56,29.81,29.53,3,1,11,0.75
2014-10-15,62.7,56.9,53.3,56.8,53.9,48.8,97,90,64,29.73,29.66,1,0,3,0.01
2014-10-16,59.2,54.4,50.5,54.9,51.6,49.1,96,90,77,29.72,29.65,0,0,1,0.21
2014-10-17,69.8,59.1,51.3,52.3,49.0,44.7,90,71,44,29.71,29.53,5,2,11,0.00
2014-10-18,55.7,49.4,44.8,47.6,42.4,38.0,91,77,62,30.01,29.66,2,1,8,0.02
2014-10-19,54.1,43.9,34.3,41.6,35.9,32.2,94,75,44,30.16,30.00,2,0,6,0.00
2014-10-20,60.7,48.6,38.5,49.4,43.4,35.3,95,83,57,30.00,29.80,4,0,8,0.24
2014-10-21,49.4,48.8,47.3,48.6,47.7,46.2,97,96,95,29.82,29.81,0,0,1,0.00
2014-10-25,70.6,62.8,53.2,55.6,49.8,39.8,81,63,45,29.89,29.75,4,1,9,0.00
2014-10-26,64.2,51.2,39.5,42.4,32.4,24.4,77,51,24,29.91,29.79,2,0,5,0.00
2014-10-27,76.0,57.0,36.6,59.7,44.6,30.7,87,65,39,29.94,29.77,5,1,7,0.00
2014-10-28,71.6,64.7,49.4,61.7,55.1,48.0,95,72,57,29.90,29.73,5,2,12,0.14
2014-10-29,57.8,48.4,43.1,48.5,39.0,32.5,96,72,44,30.03,29.90,3,1,7,0.00
2014-10-30,48.2,42.6,32.7,38.1,34.3,30.4,95,73,55,30.09,29.99,1,0,2,0.00
2014-10-31,45.2,42.3,38.0,40.3,37.4,34.3,94,83,73,29.98,29.79,2,0,5,0.12
2014-11-1,40.9,38.4,35.6,37.8,31.8,23.1,95,78,58,30.23,29.86,4,2,9,0.04
2014-11-2,47.0,35.3,27.8,29.4,24.6,21.3,85,66,41,30.39,30.23,2,0,5,0.00
2014-11-3,60.9,46.1,28.7,26.1,22.2,17.6,81,43,20,30.31,30.13,4,1,10,0.00
2014-11-4,66.0,56.7,51.0,51.1,35.9,22.5,93,49,31,30.13,29.94,5,2,13,0.10
2014-11-5,54.1,48.6,42.5,50.0,41.6,35.6,94,78,50,30.15,29.97,1,0,5,0.11
2014-11-6,50.1,46.1,41.6,48.7,44.2,39.8,96,93,87,29.97,29.68,3,1,5,0.42
2014-11-7,43.2,37.1,29.4,41.9,29.5,24.1,95,75,51,30.08,29.85,2,1,9,0.00
2014-11-8,53.1,40.2,30.1,37.7,31.8,24.5,84,73,50,29.98,29.74,4,1,11,0.00
2014-11-9,50.5,43.6,33.4,36.0,32.3,28.7,92,66,43,29.96,29.86,3,1,6,0.00
2014-11-10,62.9,49.9,38.6,38.0,33.4,27.6,80,55,28,29.96,29.77,3,0,5,0.00
2014-11-11,68.1,54.8,40.3,54.1,41.5,30.7,92,62,46,29.87,29.68,5,1,10,0.07
2014-11-12,40.1,35.9,32.1,37.7,27.8,24.0,92,73,60,30.18,29.88,2,0,6,0.00
2014-11-13,32.1,29.0,25.6,24.5,21.5,18.1,79,73,61,30.21,30.13,2,0,4,0.00
2014-11-14,30.9,26.4,20.5,20.1,17.1,15.1,83,68,54,30.34,30.19,2,0,3,0.00
2014-11-15,34.7,27.1,17.2,20.0,15.7,12.9,88,63,43,30.40,30.20,3,0,6,0.00
2014-11-16,36.3,32.4,28.8,31.7,26.4,16.5,94,79,56,30.21,29.84,1,0,4,0.02
2014-11-17,32.2,26.2,15.1,30.8,22.6,7.7,95,86,72,29.96,29.65,2,0,9,0.03
2014-11-18,17.7,13.4,10.2,12.1,6.5,3.2,84,73,60,30.25,29.96,4,1,12,0.00
2014-11-19,36.2,23.8,9.7,26.3,15.4,4.8,85,71,56,30.25,29.85,5,1,10,0.04
2014-11-20,29.4,24.5,21.1,19.8,12.8,9.4,69,61,50,30.19,29.97,4,1,12,0.00
2014-11-21,28.4,19.3,11.1,12.9,8.8,5.3,78,64,44,30.50,30.19,2,0,5,0.05
2014-11-22,48.2,34.7,16.9,35.8,26.0,7.9,92,71,54,30.40,30.03,2,0,5,0.28
2014-11-23,61.8,50.9,41.6,53.1,39.2,30.9,95,66,46,30.03,29.27,3,1,5,0.35
2014-11-24,62.9,51.5,36.5,54.9,43.3,27.4,94,74,56,29.80,29.21,8,3,11,0.07
2014-11-25,38.8,34.8,28.1,29.3,27.1,24.5,86,74,62,30.14,29.80,3,1,7,0.00
2014-11-26,39.1,32.0,27.6,28.9,26.1,24.0,88,79,63,30.14,29.98,1,0,3,0.00
2014-11-27,31.5,30.0,27.9,27.7,24.6,20.6,90,80,65,30.28,29.99,2,0,5,0.00
2014-11-28,29.4,26.9,21.9,21.3,18.0,14.7,82,69,59,30.35,30.10,2,1,9,0.00
2014-11-29,53.3,38.9,27.8,42.5,27.9,19.1,74,65,50,30.10,29.84,4,1,10,0.01
2014-11-30,61.8,58.3,52.2,53.3,49.4,42.4,78,72,68,29.95,29.83,5,3,13,0.00
2014-12-1,60.4,38.3,27.5,54.9,33.2,18.1,93,82,60,30.48,29.96,3,1,5,0.25
2014-12-2,35.2,29.8,25.8,34.2,25.2,17.8,96,83,67,30.46,30.10,2,0,3,0.01
2014-12-3,39.2,33.9,27.9,34.8,29.3,24.8,96,84,64,30.33,30.06,3,1,7,0.00
2014-12-4,34.3,30.0,24.4,28.9,26.4,22.5,94,87,75,30.41,30.29,1,0,2,0.01
2014-12-5,41.1,37.3,33.4,40.0,34.5,28.3,96,90,79,30.27,30.06,1,0,2,0.37
2014-12-6,42.8,38.8,34.4,42.0,35.5,25.6,97,88,69,30.46,29.99,4,1,11,0.85
2014-12-7,39.8,32.9,26.4,25.9,23.7,21.5,88,69,51,30.58,30.39,2,0,4,0.00
2014-12-8,42.6,36.6,30.9,30.1,23.3,18.9,76,59,42,30.38,30.06,2,0,3,0.02
2014-12-9,41.8,37.6,35.3,36.7,32.5,28.3,88,82,72,30.11,30.00,2,0,6,0.00
2014-12-10,35.5,30.6,27.2,31.7,25.3,19.4,90,80,70,30.16,30.07,3,1,11,0.00
2014-12-11,35.6,28.3,21.9,23.7,18.6,11.6,88,69,37,30.13,30.04,2,1,8,0.00
2014-12-12,39.6,29.7,22.5,28.1,23.8,19.7,92,79,55,30.25,30.13,2,0,4,0.00
2014-12-13,41.5,35.2,28.5,36.6,32.5,27.0,95,90,81,30.21,30.08,2,0,5,0.00
2014-12-14,45.4,42.9,41.2,40.2,38.0,36.1,86,83,81,30.10,30.04,1,0,4,0.00
2014-12-15,53.2,44.6,39.1,41.5,38.8,36.5,92,81,61,30.06,29.77,1,0,3,0.05
2014-12-16,48.8,43.4,37.5,47.0,40.9,34.8,95,91,83,29.95,29.66,2,1,7,0.23
2014-12-17,37.5,30.7,25.6,34.8,25.9,17.8,92,82,72,30.19,29.95,3,1,6,0.03
2014-12-18,27.3,26.6,25.8,22.5,20.2,18.3,82,77,73,30.24,30.16,1,0,4,0.00
2014-12-19,29.3,28.0,27.0,23.7,22.4,21.2,83,80,75,30.29,30.17,1,0,2,0.00
2014-12-20,29.8,28.8,27.8,24.5,23.1,22.1,84,79,76,30.26,30.20,0,0,1,0.00
2014-12-21,36.5,29.3,24.1,24.8,22.8,20.5,88,77,59,30.30,30.12,1,0,3,0.00
2014-12-22,45.8,34.3,22.7,35.1,28.5,20.0,91,80,65,30.11,29.77,1,0,1,0.00
2014-12-23,53.6,47.5,39.9,52.8,45.9,34.2,97,94,79,29.80,29.67,1,0,4,0.26
2014-12-24,56.2,50.7,38.5,53.7,48.9,32.2,97,93,78,29.67,29.22,4,1,9,0.15
2014-12-25,39.3,37.2,33.5,33.8,31.5,29.0,88,80,69,30.17,29.60,2,1,7,0.01
2014-12-26,46.7,37.3,28.8,37.5,32.1,26.5,93,82,68,30.22,30.13,3,0,6,0.00
2014-12-27,53.5,44.6,35.0,45.4,36.9,31.3,95,75,52,30.16,29.96,4,0,6,0.18
2014-12-28,46.4,36.6,30.0,45.0,33.5,26.9,95,89,77,30.14,29.91,1,0,3,0.14
2014-12-29,33.1,27.6,22.1,27.2,22.2,16.0,93,81,64,30.34,30.14,1,0,3,0.00
2014-12-30,31.5,24.3,20.3,18.8,15.5,11.0,84,69,55,30.49,30.34,2,0,4,0.00
2014-12-31,25.6,19.8,13.3,15.5,6.5,1.4,77,57,35,30.49,30.21,3,1,6,0.00
2015-1-1,35.3,26.4,18.1,19.5,12.4,4.9,66,55,42,30.22,30.02,6,2,10,0.01
2015-1-2,36.8,29.5,24.4,23.0,20.6,18.3,83,70,51,30.33,30.15,2,0,5,0.00